Theta_e
309 309 308 308 307 307 306 307 306 306 306 305 304 303 303 303 296 293 295 301 301 300 296 294 295 294 293 291 290 295 301 301 297 299 295 290 291 291 290 291 293 292 292 291 289
308 308 307 307 307 306 305 306 305 305 305 304 304 303 302 298 294 289 295 299 299 296 293 292 293 292 290 290 290 295 298 297 290 290 290 290 290 291 290 290 292 291 291 289 288
307 307 307 306 306 305 304 305 304 304 304 302 303 302 296 294 293 289 294 297 296 292 293 292 291 291 291 289 288 288 293 289 290 290 290 290 290 290 289 290 291 291 291 289 287
307 306 306 306 305 304 304 304 303 303 302 301 301 299 295 291 294 289 294 293 292 291 292 291 290 291 290 290 288 289 288 288 289 289 289 289 289 289 289 290 290 290 289 288 287
307 306 305 305 305 305 303 302 303 301 300 301 300 296 293 289 288 289 290 291 292 291 289 290 290 291 291 288 288 288 287 287 288 288 287 288 288 288 288 289 288 288 288 288 287
306 306 305 304 304 304 304 302 302 302 300 299 300 294 292 292 290 289 290 291 291 291 289 289 289 289 289 288 289 287 287 287 287 287 287 287 287 286 288 288 288 288 288 287 286
306 305 305 304 304 304 304 302 302 301 300 301 299 293 289 289 290 289 290 290 290 291 290 289 289 290 290 289 287 287 288 287 286 286 287 286 286 286 288 288 288 287 287 287 287
305 305 304 304 304 303 303 301 301 298 297 301 297 292 289 291 290 290 290 290 291 291 290 289 290 289 288 287 286 287 286 289 286 286 286 286 292 288 287 287 287 286 287 287 287
305 304 304 304 303 303 302 298 296 295 296 294 292 292 291 291 290 290 289 289 290 291 289 289 288 289 289 290 290 287 290 288 287 285 285 285 289 286 287 286 285 286 286 286 286
304 303 303 303 302 301 294 294 294 293 293 292 292 292 290 289 290 290 289 289 290 290 292 289 289 289 288 293 300 293 290 286 287 285 285 285 286 286 285 285 286 286 286 286 285
303 303 302 301 299 293 293 294 291 292 291 288 289 290 290 290 290 289 288 289 290 290 290 289 291 290 287 286 285 285 286 285 284 284 284 284 284 285 285 285 285 286 285 285 285
303 302 301 298 294 293 292 291 291 290 291 291 291 290 290 289 290 289 289 289 290 289 289 292 289 287 287 287 288 287 286 286 285 285 285 284 285 286 285 285 284 285 285 284 284
302 301 294 291 293 293 290 290 292 292 291 291 290 289 289 290 288 288 288 288 288 289 287 291 286 287 288 286 288 287 286 285 285 285 285 284 288 285 285 284 284 286 283 283 283
301 299 292 291 292 291 289 290 291 293 295 295 291 291 290 289 289 288 287 288 287 288 287 287 286 288 287 287 286 289 286 286 285 286 289 282 295 287 282 283 283 284 283 284 282
299 294 290 291 291 289 290 291 291 293 299 295 291 289 290 290 289 289 287 288 287 287 288 288 286 286 288 287 286 287 285 285 285 284 283 285 287 291 281 285 285 283 282 280 279
295 293 290 290 290 290 291 293 293 299 295 294 291 290 290 290 289 289 288 287 287 288 288 286 286 287 287 286 287 284 285 285 282 281 286 284 285 293 287 285 282 280 279 279 277
294 293 290 290 289 290 291 291 298 298 294 294 291 289 289 290 290 289 289 285 287 292 293 289 288 285 284 285 285 283 285 290 293 287 293 282 284 290 282 279 281 282 282 278 276
295 294 291 290 289 289 291 294 296 299 294 290 290 289 291 289 289 290 292 288 284 286 290 291 297 284 283 283 285 281 281 292 294 292 290 281 286 292 279 276 278 277 276 277 276
295 294 292 292 289 289 290 295 295 296 290 289 290 293 293 290 289 289 287 286 284 284 289 289 293 284 283 283 281 282 282 276 279 272 282 281 279 282 281 281 280 279 279 278 277
293 293 293 290 291 290 291 297 293 290 288 288 292 291 292 290 289 288 286 288 287 284 283 285 289 286 283 281 278 280 275 284 280 289 290 285 277 290 283 285 283 282 280 279 276
292 291 293 291 290 288 291 290 290 289 288 289 290 290 289 289 289 287 284 287 286 284 283 282 284 287 284 284 285 281 282 274 276 277 289 285 292 280 284 284 284 282 280 277 276
289 293 293 292 290 284 288 287 290 289 287 287 287 287 288 288 288 289 289 289 286 285 286 284 283 286 288 275 274 276 281 281 290 285 269 275 286 277 278 276 277 279 280 278 276
288 287 294 292 291 288 287 289 288 289 288 288 288 287 287 288 288 288 289 286 285 285 286 285 286 288 290 281 278 280 278 276 274 274 275 288 292 276 274 277 277 278 279 278 277
290 297 292 283 282 287 287 289 288 287 287 287 287 287 287 287 286 286 288 286 285 285 288 290 286 290 299 296 286 283 280 275 282 280 279 281 287 287 283 282 282 279 278 277 276
288 289 285 294 292 286 286 286 288 289 287 286 287 286 286 284 287 286 286 286 285 286 287 287 286 285 286 286 286 286 287 279 278 285 288 287 281 287 280 280 282 279 279 282 282
294 292 285 287 284 287 287 289 289 289 289 289 286 288 285 284 287 288 286 287 287 284 284 283 282 283 285 287 286 286 286 286 281 282 277 281 283 285 285 276 276 280 281 282 283
288 287 288 292 288 287 290 290 291 288 291 287 286 286 286 286 285 285 284 284 283 283 284 282 281 283 286 285 286 289 289 288 283 280 282 282 284 279 283 280 280 280 279 281 281
Wind_Speed
20 19 18 18 18 17 18 16 15 11 11 11 12 13 14 13 12 16 11 15 18 24 17 5 2 4 6 4 5 1 3 3 7 7 5 3 3 1 1 2 2 3 3 2 10
19 19 18 17 17 17 17 17 15 12 11 12 12 13 16 9 5 14 14 18 19 22 8 10 3 4 4 4 4 4 2 4 2 2 4 4 1 2 2 2 2 3 3 6 9
22 21 20 19 19 18 16 16 13 11 11 12 12 14 12 6 3 4 19 18 19 16 4 5 4 3 5 4 5 4 2 3 2 3 4 5 2 0 1 2 2 1 5 8 11
22 22 22 21 20 20 16 14 13 11 10 11 12 14 9 3 3 10 18 16 15 19 4 8 5 4 4 4 2 6 4 3 3 2 3 4 3 2 3 0 3 2 1 4 8
21 22 22 22 22 21 17 15 12 11 10 10 12 13 3 5 2 14 13 14 10 14 18 3 5 3 4 4 3 5 4 5 4 6 4 2 3 2 4 4 3 4 1 4 7
22 22 21 21 22 20 19 16 14 11 10 10 11 11 2 2 5 15 10 12 17 16 19 10 4 4 6 4 5 2 6 7 3 3 3 2 1 2 2 4 3 2 3 4 5
23 23 22 21 21 20 18 17 15 12 10 10 8 5 6 2 5 15 9 11 13 11 5 15 3 5 4 5 2 5 5 2 2 3 0 3 1 6 4 4 3 4 4 6 6
24 23 23 22 22 20 18 16 14 10 9 8 4 2 3 3 5 16 12 5 9 9 9 8 9 7 4 4 4 4 3 2 1 3 2 3 3 5 5 3 5 7 6 6 8
26 27 25 24 23 19 17 15 12 4 4 2 1 2 2 3 5 14 10 6 4 4 9 5 5 4 3 3 3 3 3 2 1 2 3 0 3 2 3 3 9 8 7 6 9
28 28 28 25 22 18 15 7 6 5 4 3 4 2 5 4 6 13 8 6 3 3 1 6 4 3 2 1 3 3 2 2 3 2 1 3 12 10 10 5 10 10 9 8 8
31 30 28 23 18 14 13 2 5 5 13 3 2 1 2 8 3 10 9 5 2 7 4 4 4 3 3 3 3 6 3 1 2 3 3 2 11 16 13 7 10 11 10 9 10
31 31 26 21 10 12 8 6 3 0 3 4 0 1 1 4 4 11 13 4 4 3 4 2 3 3 6 5 4 5 2 2 2 2 3 6 21 17 10 4 5 8 9 10 8
32 30 23 18 4 9 19 7 3 0 3 3 1 2 3 4 3 7 7 2 4 3 5 3 2 6 1 2 3 1 1 1 1 7 1 9 8 4 2 2 5 10 6 9 11
33 25 22 13 1 4 5 7 1 1 3 8 5 3 2 1 4 3 6 2 5 2 3 4 1 1 2 1 1 2 2 2 4 4 3 3 5 3 3 6 6 8 7 12 8
31 20 19 13 3 4 6 4 1 2 5 5 4 2 3 4 2 2 4 3 3 3 2 1 3 2 2 1 1 2 3 3 3 2 3 1 2 6 1 4 6 6 7 7 7
29 15 16 7 5 7 6 3 1 5 2 4 2 5 4 2 2 2 2 6 1 3 4 3 2 3 1 3 4 4 3 3 3 2 1 1 2 5 5 6 4 4 6 7 6
26 11 13 9 6 12 7 1 5 6 3 6 4 4 4 3 2 4 5 6 3 4 3 2 2 2 4 2 2 3 1 3 4 3 3 2 2 9 6 6 6 7 9 7 7
22 7 7 11 12 12 4 4 8 2 3 3 3 5 2 4 1 4 2 3 4 2 2 3 2 3 5 2 1 1 4 4 5 3 3 2 6 5 6 5 6 8 9 10 9
16 5 3 14 15 8 4 6 6 3 2 6 7 3 3 1 2 3 2 3 3 1 2 2 2 2 5 2 1 3 1 2 6 2 1 2 7 10 4 7 5 8 5 7 7
8 4 5 24 10 3 5 2 3 2 1 2 1 2 3 5 5 4 1 3 4 2 1 2 4 1 5 2 6 1 3 3 3 1 5 4 6 4 3 5 5 5 6 7 6
5 3 11 21 5 5 3 2 2 0 1 1 2 3 2 3 1 2 3 3 4 5 3 4 2 0 1 5 5 2 1 5 3 1 3 3 6 8 9 8 7 7 7 7 8
4 3 15 12 5 2 2 3 3 1 1 1 1 2 2 2 3 3 4 4 6 6 4 4 4 4 3 1 1 1 2 4 3 4 1 1 8 2 6 4 4 8 9 8 6
2 2 9 7 4 4 5 4 2 2 2 1 2 4 1 3 3 4 2 2 6 6 6 7 2 3 3 0 0 4 4 3 4 2 7 4 6 1 4 6 7 8 10 8 5
2 4 4 5 1 2 4 3 5 1 3 2 3 1 1 3 5 4 3 3 6 4 5 6 3 6 6 2 4 5 7 7 4 3 5 8 9 12 6 7 8 8 9 8 5
4 1 1 4 3 2 2 2 4 6 1 1 2 4 4 2 3 5 4 2 5 7 4 5 5 5 12 14 12 18 16 13 14 16 9 6 12 17 7 7 12 6 7 6 4
2 2 2 2 2 4 2 2 2 4 3 4 4 2 6 7 9 15 4 4 7 3 7 4 4 2 7 12 13 15 19 18 19 13 13 15 25 19 20 3 6 8 6 7 6
3 2 2 2 1 2 3 2 5 5 6 8 6 4 7 13 10 11 7 7 6 9 9 6 3 2 5 4 10 9 11 18 10 6 9 10 12 2 8 6 6 7 6 8 7
Wind_Direction
2 359 357 354 353 349 347 346 346 342 343 341 344 345 343 339 351 30 40 342 336 334 334 337 53 54 66 71 32 253 87 182 184 151 150 176 151 140 149 136 72 88 98 33 337
1 357 355 352 351 350 349 347 345 345 344 343 341 342 336 330 24 48 357 346 344 341 16 20 34 39 54 30 20 62 133 147 59 93 141 145 122 156 172 359 149 136 91 4 355
1 357 354 351 348 348 348 349 344 346 345 343 342 341 347 347 102 342 349 349 350 355 63 46 28 58 69 49 2 19 111 143 62 102 116 128 126 177 136 265 204 307 332 354 359
360 357 354 351 347 345 343 344 348 343 344 345 344 341 337 336 319 348 348 357 7 26 85 60 37 44 70 85 16 92 57 94 139 47 92 143 138 222 204 184 117 134 43 346 353
357 355 351 350 346 342 341 340 340 344 344 348 348 345 355 46 9 347 359 10 15 31 36 42 74 108 89 102 93 85 131 68 94 97 71 154 211 223 230 156 142 149 350 334 342
352 350 349 346 345 340 336 330 329 324 334 336 344 349 17 82 358 358 6 24 27 39 40 36 69 101 97 60 59 89 104 118 67 57 68 26 289 14 160 152 183 221 295 306 320
350 347 345 342 340 337 330 325 322 315 314 330 337 4 58 131 5 7 15 34 28 29 63 45 64 72 146 103 127 121 91 87 27 352 346 325 205 215 140 169 235 278 294 301 314
348 345 342 339 336 332 328 323 316 313 310 324 327 20 99 19 1 6 14 37 33 48 68 59 61 92 53 132 59 77 78 196 131 353 345 339 250 166 174 190 289 297 284 297 303
347 343 340 338 336 330 327 325 317 309 327 0 52 90 49 1 20 357 9 352 352 59 50 68 73 74 84 84 70 31 197 228 315 34 331 84 273 138 186 273 296 280 274 274 288
345 342 338 337 337 336 341 357 53 84 47 76 54 41 26 331 328 345 347 354 17 290 81 45 62 106 82 67 223 184 162 210 236 2 332 256 264 274 275 264 274 277 271 263 273
344 342 339 338 344 351 354 80 21 2 41 88 305 92 346 328 4 5 346 337 352 50 30 6 61 58 97 44 90 115 123 334 288 355 314 289 285 276 274 254 264 266 261 259 258
344 342 341 341 7 22 35 71 56 243 63 15 20 109 57 5 351 350 5 47 37 56 321 24 71 114 120 92 85 53 61 322 298 331 3 333 292 276 252 231 221 247 249 253 251
345 343 349 349 50 40 68 61 32 97 108 359 24 20 332 29 63 332 10 358 50 70 29 84 92 149 141 49 30 71 135 214 238 334 3 326 273 313 48 306 263 246 246 255 239
345 346 353 358 25 25 59 14 57 23 83 344 350 5 7 50 46 345 9 23 34 85 58 64 112 150 55 24 259 227 170 82 11 23 280 25 285 315 329 296 248 266 242 255 253
347 351 355 21 8 39 331 3 46 101 58 327 328 315 350 66 282 359 33 10 84 107 134 126 162 179 185 90 245 102 38 53 84 119 10 168 106 269 338 278 263 266 270 277 270
350 350 360 355 17 360 341 344 128 48 295 336 322 348 355 23 21 307 66 54 120 119 65 92 86 42 46 54 55 117 90 69 82 82 0 116 153 266 189 203 265 274 266 275 277
352 349 5 9 340 335 330 55 38 82 7 321 340 5 318 319 23 33 15 21 70 38 27 123 72 69 22 120 74 74 75 321 346 7 235 341 264 254 249 232 216 252 281 280 274
349 343 344 360 341 336 319 51 65 273 321 8 336 308 288 359 35 13 61 59 37 40 82 24 305 24 352 55 168 93 156 161 243 261 294 57 236 248 225 251 252 259 266 287 281
351 342 354 348 339 339 59 47 183 221 286 329 319 321 319 314 306 39 61 150 188 107 92 29 253 128 25 77 20 158 198 178 102 76 317 260 281 283 281 277 266 244 239 276 280
347 338 349 350 353 34 67 145 224 205 190 158 285 47 309 320 348 36 335 210 141 136 153 182 301 177 159 126 57 180 125 73 18 289 279 281 280 246 273 228 241 278 283 297 282
356 39 353 348 16 46 74 276 305 249 235 195 290 295 279 296 283 281 252 263 190 138 118 141 113 145 115 195 178 145 205 49 106 93 217 292 267 207 206 199 211 254 273 275 285
15 42 351 4 45 53 18 311 312 272 155 283 246 256 249 304 278 275 247 242 148 145 150 179 153 259 242 50 88 128 212 180 148 227 78 186 269 241 241 242 229 267 284 283 257
59 279 1 19 65 340 319 304 271 293 247 213 264 216 22 261 295 216 240 109 159 169 168 171 223 318 287 112 61 236 186 136 106 70 205 164 260 274 276 265 243 260 278 279 274
49 358 343 42 61 91 0 306 318 273 282 253 265 120 292 264 222 274 256 191 187 215 175 146 216 224 231 191 115 203 194 204 162 171 175 229 282 260 269 279 292 266 254 271 275
23 51 173 324 6 17 168 299 313 338 239 243 262 222 181 287 277 231 229 200 191 220 183 157 228 224 258 271 250 258 248 184 203 213 220 245 226 267 240 260 283 276 292 291 286
65 15 42 297 318 336 349 255 297 303 266 280 225 252 193 208 211 278 213 200 227 137 159 184 252 169 279 257 252 259 255 227 217 233 260 262 277 268 270 288 277 269 283 282 276
56 71 111 286 336 73 232 294 290 331 264 234 237 274 248 255 251 257 223 225 212 171 188 167 173 144 261 4 306 268 253 211 182 194 204 213 234 290 280 260 263 274 250 264 265